MAGION 5

Satellite information

Favourite Embed

Satellite Type and Status

PAYLOADIN ORBIT

Key statistics

Satellite MAGION 5 at a glance.

Uptime

10658

Days in orbit

Revolutions

≈ 4.1

Per day

Orbit

HEO

HEO

Inclination

62.7

Latest

Satellite identification and parameters

Extended collection of information and parameters for MAGION 5.

Object identification

Identified? True

Debris? False

Object name: MAGION 5

International designator: 1996-050B

Object number (NORAD): 24292

Object ID (CCSDS): 24292

Country: Czechia (CZE)

Current information (Y/N): Y

RCS size: LARGE

Orbital parameters

Period: 347.208 minutes

Inclination: 62.6804 deg

SMA: 16363.909 km

Apoapsis: 19164.035 km

Periapsis: 807.513 km

RAAN: 249.8897 deg

Eccentricy: 0.5608844

Argument of periapsis: 265.515 deg

Mean anomaly: 31.9872 deg

Mean motion: 4.14736422 rev/day

Mean motion (dot): 0.00000017 rev/day2

B* drag term: -0.00021587 1/REarth

Two-line elements (TLE)

Creation date: Oct. 25, 2025, 2:36 p.m.

Reference frame: TEME

Reference center: EARTH

Epoch: Oct. 25, 2025, 3:08 a.m. UTC

TLE line 0: 0 MAGION 5

TLE line 1: 1 24292U 96050B 25298.13058860 .00000017 00000-0 -21587-3 0 9991

TLE line 2: 2 24292 62.6804 249.8897 5608844 265.5150 31.9872 4.14736422441476

Live tracking on map

Real-time ground track for satellite MAGION 5.

In-orbit conjunctions

There are no conjunctions computed for MAGION 5, at the moment. Check back to stay up to date, as we update our databases every day.

Go to all conjunctions

Associated space launch

Interbol 2 and Magin 5 are satellites studying the magnetosphere. MuSat 1 is an experimental vehicle, intended to evaluate in-orbit behaviour of low-cost space technologies.

MAGION 5 was lifted into orbit during the mission ‘Molniya-M | Interbol 2, Magin 5 & MuSat 1’, on board a Molniya-M space rocket.

The launch took place on Aug. 29, 1996, 5:22 a.m. from 43/3 (43L).

For more information about the launch, click the button.

Launch to space Molniya-M | Interbol 2, Magin 5 & MuSat 1
Molniya-M | Interbol 2, Magin 5 & MuSat 1

Agency: N/A

Status: Launch Successful

Launch date: Aug. 29, 1996, 5:22 a.m. UTC

Rocket: Molniya-M

Launch pad: 43/3 (43L)

Location: Plesetsk Cosmodrome, Russian Federation

...

Latest news about this satellite

There are no fresh news available about this satellite. Check back as we update our databases every day.


Newsletter sign-up

Weekly statistics, charts and insights to help you stay on top of the space industry.